Location: ??????????
(54.4061°N, 22.6114°E)
Time: 22:02:17
(UTC+00:00)

STARLINK-79 - Pass Details

Date: 23 October 2019
Orbit: 548 x 551 km, 53.0° (Epoch: 17 November)

Event Time Altitude Azimuth Distance (km) Brightness Sun altitude
Rises 16:01:25 0° 265° (W) 2,717 9.7 -7.5°
Reaches altitude 10° 16:03:39 10° 263° (W) 1,824 8.1 -7.8°
Maximum altitude 16:07:47 75° 179° (S) 574 3.7 -8.4°
Enters shadow 16:11:41 11° 95° (E) 1,732 5.5 -9.0°
